Regional Weather Roundup
Issued by NWS

Home | Current Version | Previous Version | Graphics & Text | Print | Product List | Glossary On
Versions: 1 2 3 4 5 6 7 8 9 10 11 12 13 14 15 16 17 18 19 20 21 22 23 24 25 26 27 28 29 30 31 32 33 34 35 36 37 38 39 40 41 42 43 44 45 46 47 48 49 50
000
ASUS43 KIND 010209
RWRIN

WEATHER ROUNDUP FOR INDIANA
NATIONAL WEATHER SERVICE INDIANAPOLIS IN
1000 PM EDT FRI OCT 31 2014

NOTE: "FAIR" INDICATES FEW OR NO CLOUDS BELOW 12,000 FEET WITH NO
SIGNIFICANT WEATHER AND/OR OBSTRUCTIONS TO VISIBILITY.

* - STATION DOES NOT REPORT WEATHER SUCH AS PRECIPITATION OR FOG.

+ - STATION NOT QUALITY CONTROLLED BY THE NATIONAL WEATHER SERVICE.
    USE DATA WITH CAUTION...ESPECIALLY DEWPOINT AND RELATIVE
    HUMIDITY OBSERVATIONS.

INZ001>003-010>013-019-020-010300-
NORTHWEST INDIANA

CITY           SKY/WX    TMP DP  RH WIND       PRES   REMARKS
GARY /AIRPORT/ LGT RAIN N/A N/A N/A N26G47    30.28R
KNOX *+        CLOUDY    34  26  72 N15       30.23R WCI  24
LA PORTE +     CLOUDY    36  29  76 NE13      30.25R
MICHIGAN CITY+ CLOUDY    37  27  65 N20G33    30.25R
MONTICELLO +   CLOUDY    35  27  72 N15G28    30.21R WCI  25
RENSSELAER +   MOCLDY    36  34  93 N15G25    30.24R
VALPARAISO     MIX PCPN  37  26  64 N13G29    30.24R

$$

LMZ046-743>745-010300-
SOUTHERN LAKE MICHIGAN

STATION/POSITION TIME  TEMP WIND        PRES
                       AIR  DIR/SP/G
                 (UTC) (F)  (DEG/KT/KT) (MB)
MICHIGAN CITY    0200   40  360/ 38/ 45   N/A

$$

INZ004-005-014>016-021>024-010300-
NORTH CENTRAL INDIANA

CITY           SKY/WX    TMP DP  RH WIND       PRES   REMARKS
GOSHEN         CLOUDY    34  26  72 N21G31    30.19R WCI  22
LOGANSPORT +   MOCLDY    34  27  75 N17G28    30.20R WCI  23
PERU/GRISSOM   CLOUDY    35  30  83 N22G30    30.17R WCI  23
ROCHESTER +    CLEAR     34  28  80 N13G24    30.20R WCI  25
SOUTH BEND     PTCLDY    34  24  67 N16G24    30.24R WCI  24
WARSAW +       CLOUDY    34  28  80 N13G25    30.18R WCI  25

$$

INZ006>009-017-018-025>027-010300-
NORTHEAST INDIANA

CITY           SKY/WX    TMP DP  RH WIND       PRES   REMARKS
ANGOLA *+        N/A     34  12  40 N15       30.14R WCI  24
AUBURN +       CLOUDY    36  28  75 N17G29    30.14R
FORT WAYNE     CLOUDY    35  28  75 N20G29    30.13R WCI  24
HUNTINGTON +   CLOUDY   N/A N/A N/A N15G25    30.14R

$$

INZ028-029-035-036-043>045-051>053-010300-
WEST CENTRAL INDIANA

CITY           SKY/WX    TMP DP  RH WIND       PRES   REMARKS
GREENCASTLE +  CLOUDY    36  32  87 N15G24    30.18R
LAFAYETTE      CLOUDY    35  31  85 N9        30.22R WCI  28
TERRE HAUTE    FLURRIES  38  29  70 N25G39    30.20S

$$

INZ030>032-037>040-046>048-054>057-064-065-010300-
CENTRAL INDIANA

CITY           SKY/WX    TMP DP  RH WIND       PRES   REMARKS
CP ATTERBURY + LGT RAIN  36  32  87 N23       30.12R
FRANKFORT +    CLOUDY    35  29  80 NW15G21   30.19R WCI  25
GREENWOOD *+   CLOUDY    34  30  86 N21       30.13R WCI  22
INDIANAPOLIS   FLURRIES  35  28  75 N29G39    30.13R WCI  22
-EAGLE CREEK   CLOUDY    36  28  73 N21G33    30.14R
KOKOMO *+      CLOUDY    36  28  75 N22G33    30.17R
MARION +       CLOUDY    35  30  82 N22G28    30.14R WCI  23
MT COMFORT *+  CLOUDY    34  32  93 N23G32    30.12R WCI  22
SHELBYVILLE    LGT SNOW  36  32  85 N24G33    30.09R FOG
ZIONSVILLE +   CLOUDY    35  27  73 N21G28    30.15R WCI  24

$$

INZ033-034-041-042-049-050-058-059-010300-
EAST CENTRAL INDIANA

CITY           SKY/WX    TMP DP  RH WIND       PRES   REMARKS
MUNCIE         CLOUDY    35  31  85 N20G30    30.11R WCI  24

$$

INZ060-061-067>069-081>083-085>088-010300-
SOUTHWEST INDIANA

CITY           SKY/WX    TMP DP  RH WIND       PRES   REMARKS
EVANSVILLE     CLOUDY    40  24  53 NW18G33   30.21S
HUNTINGBURG *+ CLOUDY    39  28  65 N22G36    30.17R
WASHINGTON +   DRIZZLE   37  34  89 N18       30.19R

$$

INZ062-063-066-070>080-084-089>092-010300-
SOUTH CENTRAL AND SOUTHEAST INDIANA

CITY           SKY/WX    TMP DP  RH WIND       PRES   REMARKS
BLOOMINGTON    LGT SNOW  34  32  92 N15G25    30.15R FOG     WCI  24
NORTH VERNON + LGT RAIN  36  36 100 N14G21    30.07

$$




USA.gov is the U.S. government's official web portal to all federal, state and local government web resources and services.